Date String (YYYY-MM-DD hh:mm:ss) UTC,Instrument flags,Ambient pressure (hPa),Sample flow (lpm),Bypass flow (lpm),Sample temperature (°C),Ambient temperature (°C),ASC tube jacket temperature (°C),LED temperature (°C),Box temperature (°C),Sample RH (%),Span deviation,Mass concentration (μg/m³),Mass concentration (μg/m³),Mass concentration (μg/m³)
DateTimeUTC,F1_M11,P_M11,Q1_M11,Q2_M11,T1_M11,T2_M11,T3_M11,T4_M11,T5_M11,U1_M11,ZSPAN_M11,X0_M11,X2_M11,X1_M11
2022-05-06 10:00:00,,0820.8,5.00,0.00,29.2,28.4,00.0,38.2,30.9,14.9,0000.0,0010.32,0003.94,0002.94
2022-05-06 10:01:00,,0820.8,5.00,0.00,29.1,28.3,00.0,38.2,30.8,15.6,0000.0,0011.12,0004.04,0003.07
2022-05-06 10:02:00,,0820.7,5.00,0.00,29.1,28.2,00.0,38.2,30.8,13.9,0000.0,0011.64,0004.14,0003.16
2022-05-06 10:03:00,,0820.9,4.99,0.00,29.0,28.2,00.0,38.1,30.7,15.6,0000.0,0011.37,0004.17,0003.21
2022-05-06 10:04:00,,0820.8,5.01,0.00,29.0,28.1,00.0,38.1,30.7,16.9,0000.0,0011.12,0004.31,0003.31
2022-05-06 10:05:00,,0820.7,5.00,0.00,29.0,28.1,00.0,38.1,30.7,16.8,0000.0,0010.31,0004.40,0003.41
2022-05-06 10:06:00,,0820.8,4.99,0.00,28.9,28.0,00.0,38.1,30.6,16.9,0000.0,0009.99,0004.53,0003.52
2022-05-06 10:07:00,,0820.8,5.01,0.00,28.9,28.0,00.0,38.1,30.6,17.2,0000.0,0010.18,0004.66,0003.65
2022-05-06 10:08:00,,0820.8,5.00,0.00,28.9,28.0,00.0,38.0,30.5,17.3,0000.0,0010.41,0004.80,0003.77
2022-05-06 10:09:00,,0820.8,4.99,0.00,28.9,27.9,00.0,38.0,30.5,17.5,0000.0,0010.71,0005.00,0003.91
2022-05-06 10:10:00,,0820.9,5.00,0.00,28.8,27.9,00.0,38.0,30.5,17.5,0000.0,0011.77,0005.14,0004.05
2022-05-06 10:11:00,,0820.8,5.00,0.00,28.8,27.9,00.0,38.0,30.6,17.5,0000.0,0012.13,0005.24,0004.14
2022-05-06 10:12:00,,0820.9,4.99,0.00,28.8,28.0,00.0,38.0,30.6,17.5,0000.0,0011.99,0005.33,0004.22
2022-05-06 10:13:00,,0820.9,5.00,0.00,28.9,28.0,00.0,37.9,30.6,17.5,0000.0,0011.75,0005.44,0004.31
2022-05-06 10:14:00,,0820.9,5.00,0.00,28.9,28.1,00.0,37.9,30.6,17.5,0000.0,0011.77,0005.54,0004.41
2022-05-06 10:15:00,,0820.8,5.01,0.00,28.9,28.1,00.0,37.9,30.7,17.5,0000.0,0011.64,0005.53,0004.44
2022-05-06 10:16:00,,0820.9,4.98,0.00,28.9,28.1,00.0,37.9,30.7,17.2,0000.0,0011.73,0005.57,0004.45
2022-05-06 10:17:00,,0820.6,5.01,0.00,28.9,28.1,00.0,37.9,30.6,17.1,0000.0,0011.67,0005.57,0004.46
2022-05-06 10:18:00,,0820.8,4.99,0.00,28.9,28.1,00.0,37.9,30.6,17.2,0000.0,0011.65,0005.53,0004.44
2022-05-06 10:19:00,,0820.9,5.00,0.00,28.9,28.1,00.0,37.9,30.6,17.1,0000.0,0012.05,0005.51,0004.40
2022-05-06 10:20:00,,0820.9,4.99,0.00,28.9,28.1,00.0,37.9,30.6,17.0,0000.0,0013.11,0005.55,0004.38
2022-05-06 10:21:00,,0820.9,5.00,0.00,28.9,28.1,00.0,37.9,30.7,17.0,0000.0,0013.04,0005.54,0004.34
2022-05-06 10:22:00,,0821.0,5.01,0.00,28.9,28.2,00.0,37.9,30.7,16.8,0000.0,0012.42,0005.55,0004.31
2022-05-06 10:23:00,,0821.0,4.99,0.00,28.9,28.2,00.0,37.9,30.7,16.6,0000.0,0012.21,0005.51,0004.27
2022-05-06 10:24:00,,0821.0,5.02,0.00,28.9,28.2,00.0,37.9,30.7,16.7,0000.0,0012.46,0005.49,0004.23
2022-05-06 10:25:00,,0820.7,4.99,0.00,29.0,28.2,00.0,37.9,30.8,17.0,0000.0,0013.31,0005.51,0004.19
2022-05-06 10:26:00,,0820.9,5.01,0.00,29.0,28.2,00.0,37.9,30.8,17.7,0000.0,0013.59,0005.57,0004.19
2022-05-06 10:27:00,,0820.9,4.99,0.00,29.0,28.2,00.0,37.9,30.8,18.0,0000.0,0014.00,0005.62,0004.23
2022-05-06 10:28:00,,0820.9,5.02,0.00,29.0,28.2,00.0,37.9,30.8,17.7,0000.0,0014.18,0005.69,0004.28
2022-05-06 10:29:00,,0821.0,4.99,0.00,29.0,28.2,00.0,37.9,30.7,17.7,0000.0,0014.25,0005.76,0004.32
2022-05-06 10:30:00,,0821.0,5.00,0.00,29.0,28.2,00.0,37.9,30.7,17.9,0000.0,0013.84,0005.82,0004.40
2022-05-06 10:31:00,,0820.9,5.01,0.00,28.9,28.1,00.0,37.9,30.7,17.7,0000.0,0013.49,0005.85,0004.47
2022-05-06 10:32:00,,0820.9,5.01,0.00,28.9,28.1,00.0,37.9,30.6,17.4,0000.0,0013.09,0005.87,0004.50
2022-05-06 10:33:00,,0820.9,4.99,0.00,28.9,28.1,00.0,37.9,30.6,17.6,0000.0,0013.31,0005.90,0004.54
2022-05-06 10:34:00,,0820.8,5.02,0.00,28.9,28.1,00.0,37.9,30.7,17.5,0000.0,0014.08,0005.98,0004.58
2022-05-06 10:35:00,,0820.9,4.99,0.00,28.9,28.1,00.0,37.9,30.7,17.5,0000.0,0014.02,0006.07,0004.62
2022-05-06 10:36:00,,0821.0,5.01,0.00,28.9,28.1,00.0,37.9,30.7,17.8,0000.0,0013.74,0006.11,0004.66
2022-05-06 10:37:00,,0820.9,4.98,0.00,28.9,28.1,00.0,37.9,30.7,17.9,0000.0,0013.83,0006.14,0004.70
2022-05-06 10:38:00,,0821.0,5.01,0.00,28.9,28.1,00.0,37.9,30.7,17.6,0000.0,0013.57,0006.13,0004.68
2022-05-06 10:39:00,,0820.9,4.98,0.00,28.9,28.1,00.0,37.9,30.7,17.2,0000.0,0013.37,0006.07,0004.64
2022-05-06 10:40:00,,0820.9,5.01,0.00,28.9,28.1,00.0,37.9,30.7,17.4,0000.0,0013.43,0006.07,0004.63
2022-05-06 10:41:00,,0820.9,4.99,0.00,28.9,28.1,00.0,37.9,30.7,17.5,0000.0,0013.36,0006.02,0004.60
2022-05-06 10:42:00,,0820.8,5.00,0.00,28.9,28.1,00.0,37.9,30.7,16.2,0000.0,0012.95,0005.92,0004.53
2022-05-06 10:43:00,,0820.8,5.00,0.00,28.9,28.1,00.0,37.9,30.7,15.0,0000.0,0012.19,0005.73,0004.40
2022-05-06 10:44:00,,0820.8,4.99,0.00,28.9,28.1,00.0,37.9,30.7,14.9,0000.0,0011.59,0005.54,0004.28
2022-05-06 10:45:00,,0820.9,5.02,0.00,28.9,28.1,00.0,37.9,30.7,14.9,0000.0,0010.57,0005.33,0004.17
2022-05-06 10:46:00,,0820.8,5.01,0.00,28.9,28.1,00.0,37.9,30.7,15.5,0000.0,0010.22,0005.16,0004.09
2022-05-06 10:47:00,,0820.8,4.99,0.00,28.9,28.1,00.0,37.9,30.6,16.3,0000.0,0009.73,0005.03,0004.03
2022-05-06 10:48:00,,0820.8,5.01,0.00,28.9,28.1,00.0,37.9,30.7,16.7,0000.0,0009.51,0004.96,0003.97
2022-05-06 10:49:00,,0820.9,5.00,0.00,28.9,28.1,00.0,37.9,30.7,16.8,0000.0,0009.39,0004.91,0003.93
2022-05-06 10:50:00,,0820.8,4.99,0.00,28.9,28.1,00.0,37.9,30.7,16.6,0000.0,0009.38,0004.87,0003.91
2022-05-06 10:51:00,,0820.7,5.01,0.00,28.9,28.2,00.0,37.9,30.7,15.9,0000.0,0009.40,0004.77,0003.86
2022-05-06 10:52:00,,0820.7,4.99,0.00,28.9,28.2,00.0,37.9,30.7,14.9,0000.0,0009.29,0004.68,0003.75
2022-05-06 10:53:00,,0820.7,5.01,0.00,29.0,28.2,00.0,37.9,30.7,14.7,0000.0,0009.21,0004.57,0003.66
2022-05-06 10:54:00,,0820.7,4.99,0.00,29.0,28.2,00.0,37.9,30.7,14.2,0000.0,0009.29,0004.59,0003.66
2022-05-06 10:55:00,,0820.8,5.01,0.00,29.0,28.2,00.0,37.9,30.7,13.1,0000.0,0009.41,0004.60,0003.64
2022-05-06 10:56:00,,0820.6,4.98,0.00,28.9,28.1,00.0,37.9,30.7,11.5,0000.0,0009.37,0004.55,0003.59
2022-05-06 10:57:00,,0820.5,5.01,0.00,28.9,28.1,00.0,37.9,30.6,10.5,0000.0,0009.16,0004.41,0003.48
2022-05-06 10:58:00,,0820.6,4.99,0.00,28.9,28.1,00.0,37.9,30.6,10.5,0000.0,0009.19,0004.25,0003.33
2022-05-06 10:59:00,,0820.4,5.01,0.00,28.9,28.0,00.0,37.9,30.6,10.1,0000.0,0008.88,0004.05,0003.14
